Location: Peebles
(55.6412°N, 3.1714°W)
Time: 20:20:45
(UTC+01:00)

Tiros 1 - All Passes

Search period start: 02 October 2022 00:00
Search period end: 12 October 2022 00:00
Orbit: 629 x 663 km, 48.4° (Epoch: 02 October)

Date Brightness Start Highest point End Pass type
(mag) Time Alt. Az. Time Alt. Az. Time Alt. Az.
02 Oct - 00:28:30 10° SSE 00:30:05 11° SE 00:31:39 10° ESE night (unlit)
02 Oct - 02:07:08 10° SW 02:11:08 27° SSE 02:15:07 10° ESE visible
02 Oct - 03:48:16 10° WSW 03:52:36 35° S 03:56:54 10° ESE visible
02 Oct - 05:30:10 10° WSW 05:34:02 25° SSW 05:37:52 10° SSE visible
03 Oct - 00:51:50 10° SSW 00:55:07 19° SSE 00:58:25 10° ESE night (unlit)
03 Oct - 02:32:09 10° SW 02:36:25 33° S 02:40:40 10° ESE visible
03 Oct - 04:13:42 10° WSW 04:17:56 32° S 04:22:08 10° SE visible
03 Oct - 05:56:05 10° WSW 05:59:12 17° SSW 06:02:16 10° S visible
03 Oct - 23:38:10 10° SSE 23:39:16 11° SE 23:40:22 10° SE night (unlit)
04 Oct - 01:16:20 10° SW 01:20:18 26° SSE 01:24:15 10° ESE night (unlit)
04 Oct - 02:57:24 10° WSW 03:01:46 35° S 03:06:04 10° ESE visible
04 Oct - 04:39:16 10° WSW 04:43:12 26° SSW 04:47:06 10° SE visible
04 Oct - 06:23:18 10° SW 06:24:12 10° SW 06:25:06 10° SSW visible
05 Oct - 00:01:07 10° SSW 00:04:18 18° SSE 00:07:28 10° ESE night (unlit)
05 Oct - 01:41:19 10° SW 01:45:34 32° S 01:49:49 10° ESE night (unlit)
05 Oct - 03:22:48 10° WSW 03:27:05 33° S 03:31:19 10° SE visible
05 Oct - 05:05:07 10° WSW 05:08:22 18° SSW 05:11:36 10° SSE visible
06 Oct - 00:25:33 10° SSW 00:29:27 25° SSE 00:33:21 10° ESE night (unlit)
06 Oct - 02:06:32 10° WSW 02:10:54 35° S 02:15:14 10° ESE night (unlit)
06 Oct - 03:48:22 10° WSW 03:52:21 27° SSW 03:56:19 10° SE visible
06 Oct - 05:31:54 10° WSW 05:33:24 11° SW 05:34:54 10° SSW visible
06 Oct - 23:10:26 10° S 23:13:28 17° SSE 23:16:30 10° ESE night (unlit)
07 Oct - 00:50:28 10° SW 00:54:43 32° SSE 00:58:57 10° ESE night (unlit)
07 Oct - 02:31:55 10° WSW 02:36:13 33° S 02:40:30 10° SE night (unlit)
07 Oct - 04:14:09 10° WSW 04:17:32 19° SSW 04:20:54 10° SSE visible
07 Oct - 23:34:45 10° SSW 23:38:36 24° SSE 23:42:27 10° ESE night (unlit)
08 Oct - 01:15:40 10° WSW 01:20:02 35° S 01:24:22 10° ESE night (unlit)
08 Oct - 02:57:27 10° WSW 03:01:31 28° SSW 03:05:32 10° SE night (unlit)
08 Oct - 04:40:41 10° WSW 04:42:35 12° SW 04:44:29 10° SSW visible
08 Oct - 22:19:45 10° S 22:22:38 16° SSE 22:25:31 10° ESE night (unlit)
08 Oct - 23:59:38 10° SW 00:03:51 31° SSE 00:08:03 10° ESE night (unlit)
09 Oct - 01:41:02 10° WSW 01:45:21 34° S 01:49:40 10° ESE night (unlit)
09 Oct - 03:23:12 10° WSW 03:26:42 20° SSW 03:30:11 10° SSE night (unlit)
09 Oct - 22:43:58 10° SSW 22:47:45 23° SSE 22:51:32 10° ESE night (unlit)
10 Oct - 00:24:48 10° WSW 00:29:09 35° S 00:33:30 10° ESE night (unlit)
10 Oct - 02:06:32 10° WSW 02:10:39 28° SSW 02:14:44 10° SE night (unlit)
10 Oct - 03:49:33 10° WSW 03:51:46 13° SW 03:53:58 10° S night (unlit)
10 Oct - 21:29:05 10° S 21:31:48 15° SSE 21:34:30 10° ESE night (unlit)
10 Oct - 23:08:47 10° SW 23:12:59 30° SSE 23:17:10 10° ESE night (unlit)
11 Oct - 00:50:09 10° WSW 00:54:29 34° S 00:58:49 10° ESE night (unlit)
11 Oct - 02:32:15 10° WSW 02:35:51 21° SSW 02:39:26 10° SSE night (unlit)
11 Oct - 21:53:11 10° SSW 21:56:53 22° SSE 22:00:36 10° ESE visible
11 Oct - 23:33:56 10° WSW 23:38:17 35° S 23:42:38 10° ESE night (unlit)
